Location: Newark
(46.1292°N, 1.0086°W)
Time: 14:27:26
(UTC+00:00)

Vanguard 3 - Pass Details

Date: 15 November 2019
Orbit: 508 x 3263 km, 33.3° (Epoch: 10 December)

Event Time Altitude Azimuth Distance (km) Brightness Sun altitude
Rises 12:52:24 0° 204° (SSW) 6,982 13.3 23.8°
Reaches altitude 10° 12:58:10 10° 193° (SSW) 6,133 13.6 23.5°
Maximum altitude 13:12:48 27° 146° (SE) 4,775 11.7 22.6°
Drops below altitude 10° 13:25:41 10° 97° (E) 5,428 11.2 21.7°
Sets 13:30:16 0° 87° (E) 6,083 11.3 21.4°
